| time (UTC) | temp C | wind direction | speed KPH | gust KPH | rain 1hr cm | rain 24hr cm | rain mn cm | humidity % | barometer mb |
| 20260504032920 | 15 | 209 | 3.2 | 9.7 | 0.00 | 0.03 | 0.03 | 52 | 1017.2 |
| 20260504032417 | 15 | 187 | 3.2 | 4.8 | 0.00 | 0.03 | 0.03 | 51 | 1017.4 |
| 20260504031914 | 15 | 239 | 4.8 | 4.8 | 0.00 | 0.03 | 0.03 | 51 | 1017.4 |
| 20260504031411 | 15 | 208 | 3.2 | 8.0 | 0.00 | 0.03 | 0.03 | 51 | 1017.4 |
| 20260504030908 | 15 | 195 | 1.6 | 4.8 | 0.00 | 0.03 | 0.03 | 51 | 1017.3 |
| 20260504030405 | 15 | 294 | 4.8 | 4.8 | 0.00 | 0.03 | 0.03 | 50 | 1017.3 |
| 20260504025901 | 15 | 267 | 3.2 | 3.2 | 0.00 | 0.03 | 0.03 | 50 | 1017.3 |
| 20260504025358 | 15 | 200 | 0.0 | 3.2 | 0.00 | 0.03 | 0.03 | 51 | 1017.3 |
| 20260504024855 | 15 | 191 | 1.6 | 4.8 | 0.00 | 0.03 | 0.03 | 50 | 1017.4 |
| 20260504024351 | 15 | 188 | 1.6 | 3.2 | 0.00 | 0.03 | 0.03 | 50 | 1017.3 |
| 20260504023849 | 15 | 191 | 0.0 | 3.2 | 0.00 | 0.03 | 0.03 | 50 | 1017.3 |
| 20260504023345 | 15 | 203 | 4.8 | 8.0 | 0.00 | 0.03 | 0.03 | 49 | 1017.4 |
| 20260504022840 | 15 | 197 | 4.8 | 8.0 | 0.00 | 0.03 | 0.03 | 49 | 1017.1 |
| 20260504022337 | 15 | 203 | 1.6 | 4.8 | 0.00 | 0.03 | 0.03 | 48 | 1017.3 |
| 20260504021834 | 15 | 192 | 0.0 | 3.2 | 0.00 | 0.03 | 0.03 | 48 | 1017.1 |
| 20260504021331 | 16 | 199 | 1.6 | 3.2 | 0.00 | 0.03 | 0.03 | 48 | 1017.1 |
| 20260504020828 | 16 | 192 | 0.0 | 0.0 | 0.00 | 0.03 | 0.03 | 48 | 1017.0 |
| 20260504020325 | 16 | 210 | 0.0 | 3.2 | 0.00 | 0.03 | 0.03 | 47 | 1016.9 |
| 20260504015821 | 16 | 208 | 3.2 | 3.2 | 0.00 | 0.03 | 0.03 | 46 | 1017.1 |
| 20260504015317 | 16 | 194 | 1.6 | 3.2 | 0.00 | 0.03 | 0.03 | 47 | 1016.9 |
| 20260504014814 | 16 | 197 | 1.6 | 3.2 | 0.00 | 0.03 | 0.03 | 46 | 1016.8 |
| 20260504014310 | 16 | 191 | 0.0 | 4.8 | 0.00 | 0.03 | 0.03 | 47 | 1016.5 |
| 20260504013808 | 16 | 188 | 0.0 | 1.6 | 0.00 | 0.03 | 0.03 | 47 | 1016.8 |
| 20260504013305 | 16 | 217 | 0.0 | 3.2 | 0.00 | 0.03 | 0.03 | 47 | 1016.6 |
| 20260504012802 | 16 | 188 | 0.0 | 3.2 | 0.00 | 0.03 | 0.03 | 48 | 1016.5 |
| 20260504012300 | 16 | 190 | 1.6 | 3.2 | 0.00 | 0.03 | 0.03 | 48 | 1016.6 |
| 20260504011756 | 16 | 210 | 0.0 | 4.8 | 0.00 | 0.03 | 0.03 | 48 | 1016.7 |
| 20260504011253 | 16 | 214 | 3.2 | 4.8 | 0.00 | 0.03 | 0.03 | 47 | 1016.7 |
| 20260504010749 | 16 | 188 | 0.0 | 4.8 | 0.00 | 0.03 | 0.03 | 48 | 1016.5 |
| 20260504010244 | 16 | 194 | 1.6 | 4.8 | 0.00 | 0.03 | 0.03 | 48 | 1016.8 |
| 20260504005742 | 16 | 193 | 3.2 | 4.8 | 0.00 | 0.03 | 0.03 | 48 | 1016.7 |
| 20260504005238 | 16 | 188 | 0.0 | 3.2 | 0.00 | 0.03 | 0.03 | 49 | 1016.5 |
| 20260504004736 | 16 | 184 | 0.0 | 1.6 | 0.00 | 0.03 | 0.03 | 49 | 1016.5 |
| 20260504004233 | 16 | 185 | 0.0 | 1.6 | 0.00 | 0.03 | 0.03 | 50 | 1016.5 |
| 20260504003730 | 16 | 193 | 0.0 | 0.0 | 0.00 | 0.03 | 0.03 | 50 | 1016.6 |
| 20260504003227 | 16 | 179 | 0.0 | 1.6 | 0.00 | 0.03 | 0.03 | 50 | 1016.4 |
| 20260504002723 | 17 | 179 | 0.0 | 0.0 | 0.00 | 0.03 | 0.03 | 47 | 1016.4 |
| 20260504002220 | 17 | 182 | 0.0 | 1.6 | 0.00 | 0.03 | 0.03 | 49 | 1016.4 |
| 20260504001718 | 17 | 181 | 0.0 | 0.0 | 0.00 | 0.03 | 0.03 | 48 | 1016.4 |
| 20260504001215 | 17 | 188 | 0.0 | 1.6 | 0.00 | 0.03 | 0.03 | 45 | 1016.3 |
| 20260504000711 | 17 | 182 | 0.0 | 0.0 | 0.00 | 0.03 | 0.03 | 45 | 1016.3 |
| 20260504000208 | 18 | 220 | 1.6 | 3.2 | 0.00 | 0.03 | 0.03 | 44 | 1016.3 |
| 20260503235707 | 18 | 168 | 0.0 | 1.6 | 0.00 | 0.03 | 0.03 | 44 | 1016.1 |
| 20260503235204 | 18 | 185 | 0.0 | 1.6 | 0.00 | 0.03 | 0.03 | 45 | 1016.1 |
| 20260503234701 | 18 | 203 | 1.6 | 3.2 | 0.00 | 0.03 | 0.03 | 42 | 1016.2 |
| 20260503234159 | 18 | 180 | 0.0 | 4.8 | 0.00 | 0.03 | 0.03 | 42 | 1016.3 |
| 20260503233656 | 19 | 189 | 4.8 | 4.8 | 0.00 | 0.03 | 0.03 | 40 | 1016.3 |
| 20260503233151 | 19 | 207 | 1.6 | 3.2 | 0.00 | 0.03 | 0.03 | 40 | 1016.1 |
| 20260503232648 | 20 | 242 | 1.6 | 3.2 | 0.00 | 0.03 | 0.03 | 40 | 1016.3 |
| 20260503232146 | 20 | 211 | 1.6 | 8.0 | 0.00 | 0.03 | 0.03 | 37 | 1016.3 |
| 20260503231644 | 20 | 209 | 4.8 | 9.7 | 0.00 | 0.03 | 0.03 | 38 | 1016.3 |
| 20260503231140 | 20 | 205 | 3.2 | 8.0 | 0.00 | 0.03 | 0.03 | 37 | 1016.3 |
| 20260503230637 | 20 | 186 | 1.6 | 4.8 | 0.00 | 0.03 | 0.03 | 40 | 1016.4 |
| 20260503230134 | 21 | 189 | 1.6 | 9.7 | 0.00 | 0.03 | 0.03 | 36 | 1016.3 |
| 20260503225632 | 21 | 227 | 1.6 | 3.2 | 0.00 | 0.03 | 0.03 | 37 | 1016.5 |
| 20260503225131 | 20 | 263 | 4.8 | 12.9 | 0.00 | 0.03 | 0.03 | 36 | 1016.4 |
| 20260503224629 | 21 | 267 | 4.8 | 8.0 | 0.00 | 0.03 | 0.03 | 37 | 1016.6 |
| 20260503224127 | 20 | 214 | 1.6 | 11.3 | 0.00 | 0.03 | 0.03 | 36 | 1016.4 |
| 20260503223625 | 21 | 192 | 1.6 | 9.7 | 0.00 | 0.03 | 0.03 | 37 | 1016.3 |
| 20260503223120 | 20 | 190 | 1.6 | 9.7 | 0.00 | 0.03 | 0.03 | 38 | 1016.4 |
| 20260503222618 | 21 | 219 | 4.8 | 4.8 | 0.00 | 0.03 | 0.03 | 37 | 1016.4 |
| 20260503222115 | 21 | 304 | 6.4 | 8.0 | 0.00 | 0.03 | 0.03 | 34 | 1016.5 |
| 20260503221614 | 21 | 200 | 3.2 | 4.8 | 0.00 | 0.03 | 0.03 | 36 | 1016.5 |
| 20260503221111 | 21 | 189 | 3.2 | 11.3 | 0.00 | 0.03 | 0.03 | 36 | 1016.6 |
| 20260503220608 | 21 | 152 | 1.6 | 8.0 | 0.00 | 0.03 | 0.03 | 36 | 1016.6 |
| 20260503220104 | 21 | 208 | 3.2 | 9.7 | 0.00 | 0.03 | 0.03 | 36 | 1016.7 |
| 20260503215601 | 20 | 255 | 8.0 | 9.7 | 0.00 | 0.03 | 0.03 | 35 | 1016.6 |
| 20260503215058 | 20 | 254 | 8.0 | 9.7 | 0.00 | 0.03 | 0.03 | 36 | 1016.7 |
| 20260503214556 | 21 | 262 | 9.7 | 11.3 | 0.00 | 0.03 | 0.03 | 35 | 1016.6 |
| 20260503214052 | 21 | 257 | 3.2 | 8.0 | 0.00 | 0.03 | 0.03 | 37 | 1016.6 |
| 20260503213551 | 21 | 201 | 1.6 | 8.0 | 0.00 | 0.03 | 0.03 | 38 | 1016.6 |
| 20260503213047 | 21 | 188 | 0.0 | 4.8 | 0.00 | 0.03 | 0.03 | 37 | 1016.6 |
| 20260503212545 | 21 | 286 | 8.0 | 11.3 | 0.00 | 0.03 | 0.03 | 35 | 1016.8 |
| 20260503212042 | 21 | 191 | 3.2 | 9.7 | 0.00 | 0.03 | 0.03 | 37 | 1017.0 |
| 20260503211539 | 21 | 198 | 0.0 | 4.8 | 0.00 | 0.03 | 0.03 | 35 | 1016.8 |
| 20260503211034 | 20 | 237 | 1.6 | 11.3 | 0.00 | 0.03 | 0.03 | 41 | 1016.9 |
| 20260503210531 | 20 | 246 | 4.8 | 11.3 | 0.00 | 0.03 | 0.03 | 39 | 1016.9 |
| 20260503210027 | 20 | 301 | 4.8 | 14.5 | 0.00 | 0.03 | 0.03 | 39 | 1017.0 |
| 20260503205524 | 21 | 216 | 3.2 | 9.7 | 0.00 | 0.03 | 0.03 | 38 | 1017.0 |
| 20260503205020 | 20 | 205 | 6.4 | 11.3 | 0.00 | 0.03 | 0.03 | 38 | 1017.3 |
| 20260503204518 | 20 | 218 | 3.2 | 14.5 | 0.00 | 0.03 | 0.03 | 39 | 1017.1 |
| 20260503204014 | 20 | 210 | 1.6 | 9.7 | 0.00 | 0.03 | 0.03 | 40 | 1017.2 |
| 20260503203512 | 20 | 265 | 8.0 | 16.1 | 0.00 | 0.03 | 0.03 | 40 | 1017.3 |
| 20260503203009 | 20 | 218 | 3.2 | 8.0 | 0.00 | 0.03 | 0.03 | 40 | 1017.4 |
| 20260503202506 | 21 | 211 | 0.0 | 4.8 | 0.00 | 0.03 | 0.03 | 42 | 1017.6 |
| 20260503202004 | 20 | 217 | 3.2 | 8.0 | 0.00 | 0.03 | 0.03 | 43 | 1017.5 |
| 20260503201502 | 21 | 358 | 6.4 | 8.0 | 0.00 | 0.03 | 0.03 | 41 | 1017.6 |
| 20260503200959 | 21 | 215 | 1.6 | 4.8 | 0.00 | 0.03 | 0.03 | 43 | 1017.9 |
| 20260503200455 | 20 | 199 | 1.6 | 8.0 | 0.00 | 0.03 | 0.03 | 44 | 1017.9 |
| 20260503195952 | 19 | 302 | 4.8 | 11.3 | 0.00 | 0.03 | 0.03 | 44 | 1018.0 |
| 20260503195449 | 20 | 224 | 4.8 | 4.8 | 0.00 | 0.03 | 0.03 | 42 | 1018.2 |
| 20260503194945 | 19 | 210 | 3.2 | 8.0 | 0.00 | 0.03 | 0.03 | 42 | 1018.2 |
| 20260503194443 | 19 | 197 | 1.6 | 8.0 | 0.00 | 0.03 | 0.03 | 42 | 1018.2 |
| 20260503193938 | 20 | 259 | 6.4 | 11.3 | 0.00 | 0.03 | 0.03 | 42 | 1018.4 |
| 20260503193434 | 19 | 200 | 1.6 | 8.0 | 0.00 | 0.03 | 0.03 | 42 | 1018.4 |
| 20260503192929 | 20 | 217 | 6.4 | 14.5 | 0.00 | 0.03 | 0.03 | 42 | 1018.7 |
| 20260503192426 | 20 | 226 | 1.6 | 1.6 | 0.00 | 0.03 | 0.03 | 40 | 1018.6 |
| 20260503191922 | 19 | 228 | 4.8 | 9.7 | 0.00 | 0.03 | 0.03 | 41 | 1018.7 |
| 20260503191420 | 19 | 224 | 6.4 | 8.0 | 0.00 | 0.03 | 0.03 | 44 | 1018.8 |
| 20260503190916 | 19 | 205 | 4.8 | 8.0 | 0.00 | 0.03 | 0.03 | 44 | 1018.9 |
| 20260503190413 | 19 | 192 | 3.2 | 4.8 | 0.00 | 0.03 | 0.03 | 41 | 1018.9 |
| 20260503185910 | 18 | 201 | 4.8 | 16.1 | 0.00 | 0.03 | 0.03 | 43 | 1019.0 |
| 20260503185407 | 18 | 258 | 6.4 | 9.7 | 0.00 | 0.03 | 0.03 | 45 | 1018.9 |
| 20260503184905 | 18 | 279 | 3.2 | 9.7 | 0.00 | 0.03 | 0.03 | 45 | 1019.1 |
| 20260503184403 | 18 | 160 | 0.0 | 9.7 | 0.00 | 0.03 | 0.03 | 47 | 1019.1 |
| 20260503183859 | 18 | 263 | 6.4 | 12.9 | 0.00 | 0.03 | 0.03 | 43 | 1019.4 |
| 20260503183356 | 18 | 221 | 1.6 | 3.2 | 0.00 | 0.03 | 0.03 | 44 | 1019.0 |
| 20260503182853 | 18 | 220 | 3.2 | 4.8 | 0.00 | 0.03 | 0.03 | 43 | 1019.4 |
| 20260503182352 | 18 | 278 | 8.0 | 14.5 | 0.00 | 0.03 | 0.03 | 37 | 1019.2 |
| 20260503181848 | 18 | 198 | 1.6 | 4.8 | 0.00 | 0.03 | 0.03 | 44 | 1019.3 |
| 20260503181345 | 18 | 249 | 6.4 | 9.7 | 0.00 | 0.03 | 0.03 | 44 | 1019.4 |
| 20260503180842 | 17 | 238 | 1.6 | 9.7 | 0.00 | 0.03 | 0.03 | 42 | 1019.3 |
| 20260503180340 | 18 | 260 | 6.4 | 9.7 | 0.00 | 0.03 | 0.03 | 38 | 1019.4 |
| 20260503175836 | 17 | 316 | 4.8 | 8.0 | 0.00 | 0.03 | 0.03 | 39 | 1019.2 |
| 20260503175334 | 17 | 288 | 8.0 | 12.9 | 0.00 | 0.03 | 0.03 | 38 | 1019.3 |
| 20260503174829 | 17 | 227 | 4.8 | 11.3 | 0.00 | 0.03 | 0.03 | 40 | 1019.4 |
| 20260503174327 | 17 | 217 | 4.8 | 8.0 | 0.00 | 0.03 | 0.03 | 43 | 1019.3 |
| 20260503173822 | 18 | 240 | 6.4 | 11.3 | 0.00 | 0.03 | 0.03 | 44 | 1019.5 |
| 20260503173319 | 18 | 190 | 0.0 | 4.8 | 0.00 | 0.03 | 0.03 | 50 | 1019.5 |
| 20260503172816 | 17 | 216 | 4.8 | 11.3 | 0.00 | 0.03 | 0.03 | 48 | 1019.7 |
| 20260503172314 | 17 | 252 | 4.8 | 9.7 | 0.00 | 0.03 | 0.03 | 47 | 1019.5 |
| 20260503171809 | 17 | 185 | 0.0 | 9.7 | 0.00 | 0.03 | 0.03 | 48 | 1019.5 |
| 20260503171306 | 17 | 201 | 3.2 | 9.7 | 0.00 | 0.03 | 0.03 | 46 | 1019.7 |
| 20260503170803 | 17 | 296 | 3.2 | 8.0 | 0.00 | 0.03 | 0.03 | 49 | 1020.0 |
| 20260503170300 | 17 | 225 | 4.8 | 8.0 | 0.00 | 0.03 | 0.03 | 47 | 1020.0 |
| 20260503150652 | 16 | 227 | 3.2 | 4.8 | 0.00 | 0.03 | 0.03 | 59 | 1020.9 |
| 20260503150148 | 15 | 158 | 0.0 | 0.0 | 0.00 | 0.03 | 0.03 | 61 | 1020.8 |
| 20260503140113 | 13 | 120 | 0.0 | 3.2 | 0.00 | 0.03 | 0.03 | 70 | 1020.7 |
| 20260503131042 | 12 | 150 | 1.6 | 1.6 | 0.00 | 0.03 | 0.03 | 82 | 1020.3 |
| 20260503130539 | 11 | 135 | 0.0 | 3.2 | 0.00 | 0.03 | 0.03 | 84 | 1020.4 |
| 20260503110430 | 6 | 165 | 0.0 | 0.0 | 0.00 | 0.03 | 0.03 | 99 | 1019.3 |
| 20260503090321 | 6 | 176 | 0.0 | 0.0 | 0.00 | 0.03 | 0.03 | 99 | 1018.0 |
| 20260503081249 | 6 | 175 | 0.0 | 0.0 | 0.00 | 0.03 | 0.03 | 99 | 1017.2 |
| 20260503080745 | 6 | 175 | 0.0 | 0.0 | 0.00 | 0.03 | 0.03 | 99 | 1017.4 |
| 20260503080242 | 6 | 175 | 0.0 | 0.0 | 0.00 | 0.03 | 0.03 | 99 | 1017.0 |
| 20260503072719 | 7 | 192 | 0.0 | 0.0 | 0.00 | 0.03 | 0.03 | 99 | 1017.2 |
| 20260503072215 | 7 | 192 | 0.0 | 0.0 | 0.00 | 0.03 | 0.03 | 99 | 1017.0 |
| 20260503071712 | 7 | 192 | 0.0 | 0.0 | 0.00 | 0.03 | 0.03 | 99 | 1017.2 |
| 20260503071209 | 7 | 192 | 0.0 | 0.0 | 0.00 | 0.03 | 0.03 | 99 | 1017.1 |
| 20260503070705 | 7 | 192 | 0.0 | 0.0 | 0.00 | 0.03 | 0.03 | 99 | 1016.8 |
| 20260503070204 | 7 | 192 | 0.0 | 0.0 | 0.00 | 0.03 | 0.03 | 99 | 1016.8 |
| 20260503060128 | 7 | 192 | 0.0 | 0.0 | 0.00 | 0.03 | 0.03 | 99 | 1016.8 |
| 20260503055119 | 7 | 192 | 0.0 | 0.0 | 0.18 | 0.03 | 0.03 | 99 | 1016.7 |
| 20260503054615 | 7 | 192 | 0.0 | 0.0 | 0.00 | 0.00 | 0.00 | 99 | 1016.8 |
| 20260503054112 | 7 | 192 | 0.0 | 0.0 | 0.00 | 0.00 | 0.00 | 99 | 1016.8 |
| 20260503053610 | 8 | 192 | 0.0 | 0.0 | 0.00 | 0.00 | 0.00 | 99 | 1016.6 |
| 20260503053108 | 8 | 192 | 0.0 | 0.0 | 0.00 | 0.00 | 0.00 | 99 | 1016.6 |
| 20260503052604 | 8 | 192 | 0.0 | 0.0 | 0.00 | 0.00 | 0.00 | 99 | 1016.5 |
| 20260503052101 | 8 | 192 | 0.0 | 0.0 | 0.00 | 0.00 | 0.00 | 99 | 1016.7 |
| 20260503051556 | 8 | 192 | 0.0 | 0.0 | 0.00 | 0.00 | 0.00 | 99 | 1016.6 |
| 20260503051054 | 8 | 192 | 0.0 | 0.0 | 0.00 | 0.00 | 0.00 | 99 | 1016.7 |
| 20260503050550 | 8 | 192 | 0.0 | 0.0 | 0.00 | 0.00 | 0.00 | 99 | 1016.7 |
| 20260503050047 | 8 | 192 | 0.0 | 0.0 | 0.00 | 0.00 | 0.00 | 99 | 1016.6 |
| 20260503045544 | 8 | 192 | 0.0 | 0.0 | 0.00 | 0.00 | 0.00 | 99 | 1016.7 |
| 20260503045042 | 8 | 192 | 0.0 | 0.0 | 0.00 | 0.00 | 0.00 | 99 | 1016.9 |
| 20260503044538 | 8 | 192 | 0.0 | 0.0 | 0.00 | 0.00 | 0.00 | 99 | 1016.7 |
| 20260503044036 | 8 | 192 | 0.0 | 0.0 | 0.00 | 0.00 | 0.00 | 99 | 1016.6 |
| 20260503043532 | 8 | 192 | 0.0 | 0.0 | 0.00 | 0.00 | 0.00 | 99 | 1016.4 |
| 20260503043028 | 8 | 192 | 0.0 | 0.0 | 0.00 | 0.00 | 0.00 | 99 | 1016.7 |
| 20260503042526 | 8 | 192 | 0.0 | 0.0 | 0.00 | 0.00 | 0.00 | 99 | 1016.7 |
| 20260503042021 | 9 | 192 | 0.0 | 0.0 | 0.00 | 0.00 | 0.00 | 99 | 1016.6 |
| 20260503041519 | 9 | 192 | 0.0 | 0.0 | 0.00 | 0.00 | 0.00 | 99 | 1016.6 |
| 20260503041017 | 8 | 192 | 0.0 | 0.0 | 0.00 | 0.00 | 0.00 | 99 | 1016.5 |
| 20260503040514 | 9 | 192 | 0.0 | 0.0 | 0.00 | 0.00 | 0.00 | 99 | 1016.6 |
| 20260503040011 | 9 | 192 | 0.0 | 0.0 | 0.00 | 0.28 | 0.28 | 99 | 1016.5 |
| 20260503035508 | 9 | 192 | 0.0 | 0.0 | 0.00 | 0.28 | 0.28 | 99 | 1016.4 |
| 20260503035005 | 9 | 192 | 0.0 | 0.0 | 0.00 | 0.28 | 0.28 | 99 | 1016.3 |
| 20260503034502 | 9 | 192 | 0.0 | 0.0 | 0.00 | 0.28 | 0.28 | 99 | 1016.2 |
| 20260503033959 | 10 | 192 | 0.0 | 0.0 | 0.00 | 0.28 | 0.28 | 99 | 1016.1 |
| 20260503033456 | 10 | 192 | 0.0 | 0.0 | 0.00 | 0.28 | 0.28 | 99 | 1016.1 |